Stations météo

Publicité
Pau, France (7610): Température de l'air & dewpoint: 21.10.2020 18:00:00 - 27.10.2020 18:00:00 (CET)Pau, France (7610): Température de l'air 5cm: 21.10.2020 18:00:00 - 27.10.2020 18:00:00 (CET)Pau, France (7610): Température de l'air -20cm & Température de l'air -100cm: 21.10.2020 18:00:00 - 27.10.2020 18:00:00 (CET)Pau, France (7610): Vitesse du vent & gusts: 21.10.2020 18:00:00 - 27.10.2020 18:00:00 (CET)Pau, France (7610): Direction du vent: 21.10.2020 18:00:00 - 27.10.2020 18:00:00 (CET)Pau, France (7610): reduced air pressure: 21.10.2020 18:00:00 - 27.10.2020 18:00:00 (CET)Pau, France (7610): visibility: 21.10.2020 18:00:00 - 27.10.2020 18:00:00 (CET)Pau, France (7610): Ensoleillement: 21.10.2020 18:00:00 - 27.10.2020 18:00:00 (CET)Pau, France (7610): Quantités de précipitations: 21.10.2020 18:00:00 - 27.10.2020 18:00:00 (CET)
Date & Time tt [°C] td [°C] tt 5cm [°C] tt -20cm [°C] tt -100cm [°C] ff [km/h] ff [knt] fx [km/h] fx [knt] dd ppp [hPa] vv [km] sd [min] rr [mm]
27.10.2020 18:00:00 15,6 9,9 14,1 14,6 16,3 4 2 9 5 NW 1014,3 8 0 0,0
27.10.2020 17:00:00 17,0 8,2 16,7 14,6 16,3 6 3 8 4 W 1013,5 39 0 0,0
27.10.2020 16:00:00 17,4 7,7 17,4 14,5 16,3 7 4 18 10 WSW 1013,4 60 9 0,0
27.10.2020 15:00:00 18,1 6,0 20,7 14,5 16,3 11 6 19 11 SW 1013,4 57 38 0,0
27.10.2020 14:00:00 17,3 6,5 18,2 14,5 16,3 10 5 23 12 WSW 1014,1 60 14 0,0
27.10.2020 13:00:00 16,3 7,2 18,6 14,5 16,3 14 8 36 19 WSW 1014,9 53 27 0,0
27.10.2020 12:00:00 16,2 6,9 17,2 14,5 16,3 18 10 27 15 WSW 1015,7 52 17 0,0
27.10.2020 11:00:00 15,1 7,6 16,7 14,6 16,3 13 7 25 13 SW 1015,9 53 30 0,0
27.10.2020 10:00:00 13,0 8,9 12,5 14,7 16,3 6 3 13 7 SSE 1016,1 60 5 0,0
27.10.2020 09:00:00 10,8 8,6 9,3 14,8 16,3 8 5 11 6 SE 1016,4 58 0 0,0
27.10.2020 08:00:00 9,7 8,1 8,5 14,8 16,3 8 5 14 8 SE 1016,2 60 0 0,0
27.10.2020 07:00:00 9,7 8,0 8,6 14,8 16,3 6 4 13 7 ESE 1016,1 60 0 0,0
27.10.2020 06:00:00 9,7 7,6 8,1 14,8 16,3 7 4 31 17 SSW 1016,3 60 0 0,0
27.10.2020 05:00:00 9,9 8,0 8,6 14,9 16,3 21 11 31 17 SW 1016,5 28 0 0,0
27.10.2020 04:00:00 9,7 8,0 8,7 14,9 16,4 6 3 19 11 S 1016,5 20 0 0,4
27.10.2020 03:00:00 10,0 8,1 8,9 14,9 16,4 10 5 22 12 SW 1017,0 51 0 0,0
27.10.2020 02:00:00 9,6 8,4 8,8 14,9 16,4 13 7 30 16 SW 1017,2 14 0 0,4
27.10.2020 01:00:00 9,6 8,2 8,6 15,0 16,4 16 9 24 13 SW 1017,7 43 0 0,0
27.10.2020 00:00:00 9,3 8,1 7,7 15,0 16,4 11 6 24 13 SSW 1018,0 29 0 0,4
26.10.2020 23:00:00 8,9 7,2 7,8 15,0 16,4 11 6 32 17 SSW 1018,2 60 0 0,0
26.10.2020 22:00:00 9,1 7,9 8,4 15,0 16,4 18 10 32 17 SSW 1018,0 37 0 0,2
26.10.2020 21:00:00 9,2 7,6 7,5 15,0 16,4 15 8 27 15 S 1017,5 60 0 0,0
26.10.2020 20:00:00 8,8 7,1 7,3 15,0 16,4 16 9 36 19 SSW 1017,8 60 0 0,6
26.10.2020 19:00:00 8,4 7,5 7,7 15,0 16,4 18 10 35 19 SSW 1017,6 6 0 1,8
26.10.2020 18:00:00 8,8 6,6 7,7 15,0 16,4 14 8 31 17 SSW 1016,9 10 20 0,0
26.10.2020 17:00:00 9,0 7,3 8,4 15,0 16,4 18 10 36 19 SSW 1016,5 14 1 0,0
26.10.2020 16:00:00 9,6 8,0 9,2 14,9 16,4 20 11 37 20 SW 1016,4 35 5 0,2
26.10.2020 15:00:00 10,0 9,1 8,6 14,8 16,4 12 7 25 14 SW 1015,6 20 4 1,8
26.10.2020 14:00:00 8,9 7,8 8,4 14,8 16,4 14 8 32 18 SSW 1015,6 6 0 1,8
26.10.2020 13:00:00 9,0 7,4 8,6 14,9 16,4 19 10 36 19 SSW 1015,8 8 0 0,4
26.10.2020 12:00:00 9,4 7,8 8,8 14,9 16,4 16 8 30 16 SSW 1015,9 30 20 1,5
26.10.2020 11:00:00 9,0 7,9 7,8 15,0 16,4 9 5 14 8 S 1015,8 48 1 2,2
26.10.2020 10:00:00 8,3 7,2 7,9 15,0 16,4 11 6 18 10 WSW 1016,0 4,8 0 2,6
26.10.2020 09:00:00 8,9 7,2 7,9 15,1 16,4 12 6 29 16 NNW 1014,8 28 0 0,0
26.10.2020 08:00:00 8,8 7,1 7,9 15,1 16,4 19 10 36 19 SW 1012,9 20 0 0,8
26.10.2020 07:00:00 9,0 7,4 8,0 15,2 16,4 16 9 24 13 WSW 1012,5 19 0 0,0
26.10.2020 06:00:00 8,8 7,6 8,0 15,2 16,4 7 4 20 11 SSW 1011,8 15 0 2,0
26.10.2020 05:00:00 8,9 7,8 8,2 15,3 16,4 16 9 27 14 SW 1011,5 9 0 0,6
26.10.2020 04:00:00 8,9 8,0 8,0 15,3 16,4 13 7 25 13 SSW 1011,3 48 0 0,0
26.10.2020 03:00:00 9,3 8,4 8,7 15,3 16,4 13 7 28 15 WSW 1011,5 10 0 1,0
26.10.2020 02:00:00 10,0 8,8 8,7 15,3 16,4 10 5 18 10 W 1011,5 20 0 0,0
26.10.2020 01:00:00 10,1 8,5 9,0 15,4 16,4 6 3 16 9 S 1011,0 60 0 0,0
26.10.2020 00:00:00 10,1 8,9 9,4 15,4 16,4 9 5 21 12 SSW 1011,0 38 0 0,2
25.10.2020 23:00:00 10,3 9,5 9,7 15,5 16,4 9 5 25 14 SW 1011,3 19 0 0,4
25.10.2020 22:00:00 10,2 9,6 9,8 15,5 16,4 10 5 24 13 SSW 1011,4 13 0 2,0
25.10.2020 21:00:00 10,5 10,0 10,2 15,5 16,4 11 6 22 12 SSW 1010,6 12 0 3,3
25.10.2020 20:00:00 10,9 10,3 10,4 15,5 16,4 9 5 21 11 SSW 1011,0 3,8 0 4,0
25.10.2020 19:00:00 10,9 10,3 10,5 15,5 16,4 20 11 51 27 WNW 1011,0 4,4 0 5,4
25.10.2020 18:00:00 12,0 10,9 11,6 15,5 16,4 29 16 51 28 WNW 1009,3 1,2 0 4,3
25.10.2020 17:00:00 14,3 12,8 13,6 15,5 16,4 19 10 30 16 NNW 1008,0 11 0 0,6
25.10.2020 16:00:00 16,3 11,4 16,3 15,5 16,4 5 3 14 8 E 1006,8 45 0 0,0
25.10.2020 15:00:00 16,3 11,7 16,2 15,5 16,4 7 4 18 10 NE 1007,6 53 0 0,0
25.10.2020 14:00:00 15,7 11,5 15,7 15,5 16,4 5 3 20 11 NNE 1008,2 50 0 0,0
25.10.2020 13:00:00 16,0 11,2 16,7 15,5 16,4 16 8 25 14 NNW 1009,0 33 0 0,0
25.10.2020 12:00:00 17,7 11,0 17,8 15,5 16,4 5 3 16 8 E 1008,9 42 0 0,0
25.10.2020 11:00:00 18,8 9,6 15,7 15,6 16,4 8 4 20 11 SE 1009,1 52 2 0,0
25.10.2020 10:00:00 14,9 10,3 14,6 15,6 16,4 4 2 19 10 SSW 1009,8 54 0 0,0
25.10.2020 09:00:00 16,9 9,6 9,5 15,7 16,4 8 4 14 7 SSW 1009,7 51 35 0,0
25.10.2020 08:00:00 10,6 6,3 6,6 15,7 16,4 8 5 15 8 SE 1009,8 54 9 0,0
25.10.2020 07:00:00 9,5 6,2 6,1 15,8 16,4 9 5 18 10 ESE 1009,7 53 0 0,0
25.10.2020 06:00:00 9,2 6,1 6,1 15,8 16,4 6 3 21 12 E 1009,9 57 0 0,0
25.10.2020 05:00:00 9,8 6,5 7,3 15,9 16,4 10 5 24 13 ESE 1010,6 50 0 0,0
25.10.2020 04:00:00 10,4 6,9 7,2 15,9 16,4 9 5 22 12 SE 1011,2 32 0 0,0
25.10.2020 03:00:00 9,5 7,1 6,9 16,0 16,4 14 8 19 10 SE 1012,3 34 0 0,0
25.10.2020 02:00:00 9,7 7,6 5,8 16,0 16,4 12 7 16 8 SE 1013,2 33 0 0,0
25.10.2020 01:00:00 - - - - - - - - - - - - - -
25.10.2020 00:00:00 10,1 8,2 5,3 16,1 16,4 10 5 14 7 SE 1014,6 32 0 0,0
24.10.2020 23:00:00 9,7 7,8 5,3 16,1 16,4 2 1 15 8 NNW 1015,4 30 0 0,0
24.10.2020 22:00:00 10,5 8,9 7,2 16,1 16,4 5 3 9 5 E 1015,5 23 0 0,0
24.10.2020 21:00:00 11,2 9,1 7,6 16,1 16,4 4 2 10 5 SE 1015,8 32 0 0,0
24.10.2020 20:00:00 11,8 9,5 7,6 16,0 16,4 0 0 10 6 N 1016,1 32 0 0,0
24.10.2020 19:00:00 12,9 9,7 8,5 16,0 16,4 4 2 10 5 E 1016,2 29 0 0,0
24.10.2020 18:00:00 16,1 10,0 11,1 15,9 16,4 6 3 13 7 SE 1016,5 47 7 0,0
24.10.2020 17:00:00 18,9 8,5 17,9 15,9 16,3 10 5 16 8 SE 1016,9 37 48 0,0
24.10.2020 16:00:00 20,0 9,0 23,7 15,8 16,4 7 4 13 7 S 1017,5 30 60 0,0
24.10.2020 15:00:00 20,4 8,4 25,5 15,8 16,3 5 3 13 7 WNW 1018,1 43 60 0,0
24.10.2020 14:00:00 19,9 7,9 26,4 15,8 16,4 7 4 16 9 NNW 1019,0 40 60 0,0
24.10.2020 13:00:00 19,3 9,5 25,6 15,8 16,4 6 4 14 7 NW 1019,9 42 60 0,0
24.10.2020 12:00:00 18,3 8,5 25,3 15,9 16,3 5 3 13 7 WSW 1020,9 20 60 0,0
24.10.2020 11:00:00 16,5 10,3 22,4 15,9 16,3 5 3 11 6 SSE 1021,6 47 60 0,0
24.10.2020 10:00:00 14,2 9,4 13,9 15,9 16,3 4 2 14 8 SE 1022,0 43 60 0,0
24.10.2020 09:00:00 11,4 9,0 8,2 16,0 16,3 8 4 17 9 ESE 1022,4 47 60 0,0
24.10.2020 08:00:00 8,8 7,7 4,2 16,0 16,3 6 3 11 6 ESE 1022,5 36 15 0,0
24.10.2020 07:00:00 8,1 7,2 4,8 16,1 16,3 5 3 10 6 SE 1022,7 31 0 0,0
24.10.2020 06:00:00 8,7 7,9 6,4 16,1 16,3 6 3 10 5 ESE 1022,9 33 0 0,0
24.10.2020 05:00:00 8,9 8,3 6,0 16,2 16,3 6 3 13 7 E 1022,9 35 0 0,0
24.10.2020 04:00:00 9,5 8,9 7,7 16,2 16,3 10 5 14 8 ESE 1023,1 23 0 0,0
24.10.2020 03:00:00 10,0 9,5 7,7 16,2 16,3 10 5 13 7 ESE 1023,6 17 0 0,0
24.10.2020 02:00:00 10,8 9,9 8,6 16,3 16,3 8 4 13 7 ESE 1023,7 22 0 0,0
24.10.2020 01:00:00 11,4 10,8 7,3 16,3 16,3 7 4 9 5 SE 1023,9 20 0 0,0
24.10.2020 00:00:00 11,4 10,6 6,6 16,3 16,3 6 3 7 4 SSE 1024,0 16 0 0,0
23.10.2020 23:00:00 12,7 10,9 9,3 16,3 16,3 5 3 17 9 SSW 1023,7 59 0 0,0
23.10.2020 22:00:00 13,2 11,4 11,5 16,3 16,3 6 3 12 6 SSW 1023,5 60 0 0,0
23.10.2020 21:00:00 12,8 11,0 10,2 16,3 16,3 7 4 14 8 SW 1023,3 60 0 0,0
23.10.2020 20:00:00 13,1 10,8 9,9 16,3 16,3 8 5 23 13 WSW 1022,7 60 0 0,0
23.10.2020 19:00:00 14,0 10,8 12,5 16,3 16,3 10 5 29 15 WNW 1022,0 60 0 0,0
23.10.2020 18:00:00 15,1 10,5 14,2 16,3 16,3 14 8 28 15 W 1020,9 60 16 0,0
23.10.2020 17:00:00 16,2 10,5 15,5 16,2 16,3 22 12 36 20 WNW 1020,0 35 36 0,0
23.10.2020 16:00:00 17,3 11,6 16,7 16,2 16,3 24 13 33 18 WNW 1019,5 49 32 0,0
23.10.2020 15:00:00 17,4 11,4 18,6 16,2 16,3 25 13 42 23 NW 1019,2 34 50 0,0
23.10.2020 14:00:00 18,1 12,5 14,8 16,1 16,3 27 15 39 21 WNW 1018,8 60 31 0,2
23.10.2020 13:00:00 17,4 12,1 18,6 16,2 16,3 22 12 36 19 W 1018,6 38 45 0,0
23.10.2020 12:00:00 17,4 13,9 17,3 16,2 16,3 16 9 26 14 W 1018,7 19 53 0,0
23.10.2020 11:00:00 15,8 13,1 14,4 16,2 16,3 9 5 14 8 W 1018,4 55 5 0,0
23.10.2020 10:00:00 14,2 12,8 13,5 16,2 16,3 6 3 21 12 SW 1018,0 31 0 0,2
23.10.2020 09:00:00 14,3 12,5 12,8 16,2 16,3 7 4 16 8 S 1017,0 57 28 0,0
23.10.2020 08:00:00 13,3 12,2 10,3 16,2 16,3 5 3 15 8 S 1016,3 56 9 0,0
23.10.2020 07:00:00 13,4 12,3 11,5 16,2 16,3 5 3 10 5 SSW 1015,5 60 0 0,0
23.10.2020 06:00:00 13,9 12,5 12,7 16,2 16,3 5 3 22 12 WNW 1015,5 60 0 0,0
23.10.2020 05:00:00 14,7 14,1 13,6 16,2 16,3 15 8 27 15 W 1015,0 8 0 0,8
23.10.2020 04:00:00 15,0 14,5 14,2 16,2 16,3 4 2 16 8 SW 1013,9 11 0 0,0
23.10.2020 03:00:00 14,9 14,4 13,9 16,3 16,3 9 5 11 6 E 1013,9 11 0 1,6
23.10.2020 02:00:00 15,1 14,5 13,9 16,2 16,3 4 2 13 7 SSW 1014,5 9 0 0,4
23.10.2020 01:00:00 15,3 14,7 12,5 16,2 16,3 4 2 9 5 SE 1013,9 19 0 0,0
23.10.2020 00:00:00 15,5 14,5 14,1 16,3 16,3 6 3 11 6 WNW 1013,4 20 0 0,0
22.10.2020 23:00:00 16,1 15,0 14,7 16,2 16,3 4 2 26 14 W 1013,0 13 0 0,0
22.10.2020 22:00:00 16,7 16,1 15,2 16,2 16,3 18 10 23 12 WNW 1012,3 15 0 0,4
22.10.2020 21:00:00 17,0 15,5 14,9 16,1 16,3 5 3 11 6 SW 1012,0 13 0 0,0
22.10.2020 20:00:00 17,5 15,5 15,7 16,1 16,3 7 4 12 6 SSE 1011,1 20 0 0,0
22.10.2020 19:00:00 18,0 15,6 16,2 16,1 16,3 7 4 18 10 ENE 1011,0 18 0 0,0
22.10.2020 18:00:00 18,7 15,8 17,4 16,0 16,3 9 5 16 9 NNE 1010,6 20 0 0,0
22.10.2020 17:00:00 19,9 15,5 19,1 16,0 16,3 7 4 17 9 ENE 1010,6 11 0 0,0
22.10.2020 16:00:00 21,2 15,7 21,8 15,9 16,3 10 5 14 7 NNE 1010,3 4,7 0 0,0
22.10.2020 15:00:00 21,9 15,3 22,4 15,8 16,2 7 4 19 11 ENE 1010,6 3,3 0 0,0
22.10.2020 14:00:00 22,7 14,0 24,6 15,8 16,3 11 6 18 10 NNE 1010,6 1,9 5 0,0
22.10.2020 13:00:00 22,3 15,2 25,6 15,7 16,3 8 4 16 9 NW 1011,1 17 34 0,0
22.10.2020 12:00:00 21,5 16,2 25,6 15,7 16,3 5 3 13 7 NW 1011,6 19 48 0,0
22.10.2020 11:00:00 21,1 16,1 21,7 15,7 16,3 3 2 13 7 NNE 1011,7 16 60 0,0
22.10.2020 10:00:00 16,1 15,1 15,1 15,8 16,3 6 3 11 6 ESE 1012,1 15 5 0,0
22.10.2020 09:00:00 14,1 13,8 10,1 15,8 16,3 2 1 8 4 SE 1012,0 11 16 0,0
22.10.2020 08:00:00 12,5 12,0 8,7 15,8 16,3 3 2 8 4 W 1011,5 8 0 0,0
22.10.2020 07:00:00 13,2 12,3 9,4 15,8 16,3 0 0 10 5 N 1011,1 9 0 0,0
22.10.2020 06:00:00 14,2 12,9 12,5 15,8 16,3 3 1 13 7 S 1011,0 15 0 0,0
22.10.2020 05:00:00 15,0 13,7 12,5 15,9 16,3 6 3 13 7 SW 1010,8 18 0 0,0
22.10.2020 04:00:00 15,1 13,6 12,7 15,8 16,3 7 4 16 9 E 1010,7 13 0 0,0
22.10.2020 03:00:00 14,8 13,7 12,2 15,8 16,3 12 7 14 8 SE 1011,1 15 0 0,0
22.10.2020 02:00:00 14,3 13,3 11,9 15,8 16,3 5 3 14 8 E 1011,4 15 0 0,0
22.10.2020 01:00:00 14,7 13,4 12,6 15,8 16,3 10 5 16 8 ESE 1011,2 15 0 0,0
22.10.2020 00:00:00 14,4 13,3 10,2 15,8 16,3 9 5 14 8 ESE 1011,4 13 0 0,0
21.10.2020 23:00:00 15,1 14,0 11,4 15,7 16,3 8 4 10 6 SE 1010,9 16 0 0,0
21.10.2020 22:00:00 15,6 14,1 12,8 15,7 16,3 7 4 9 5 ESE 1010,5 17 0 0,0
21.10.2020 21:00:00 16,8 14,6 13,2 15,7 16,3 4 2 16 9 NE 1009,8 20 0 0,0
21.10.2020 20:00:00 18,0 15,1 15,5 15,6 16,3 9 5 19 11 SW 1009,7 28 0 0,0
21.10.2020 19:00:00 18,3 15,2 15,9 15,5 16,3 4 2 9 5 N 1008,7 20 0 0,0
21.10.2020 18:00:00 20,0 15,8 16,9 15,4 16,3 5 3 9 5 SE 1008,2 20 0 0,0

tt = Température de l'air
td = dewpoint
tt 5cm = Température de l'air 5cm
tt -20cm = Température de l'air -20cm
tt -100cm = Température de l'air -100cm
ff = Vitesse du vent
fx = gusts
dd = Direction du vent
ppp = reduced air pressure
vv = visibility
sd = Ensoleillement
rr = Quantités de précipitations

stations d'obs. à proximité